FW0225 Weather Reports


Display with metric or nautical units.
time (UTC)temp
F
wind
direction
speed
MPH
gust
MPH
rain 1hr
in
rain 24hr
in
rain mn
in
humidity
%
barometer
mb
20260504174029 66 222 0.0 2.0 0.00 0.00 0.00 69 1015.2
20260504173553 66 222 1.0 2.0 0.00 0.00 0.00 69 1015.2
20260504173024 67 222 0.0 1.0 0.00 0.00 0.00 68 1015.2
20260504172527 67 222 0.0 1.0 0.00 0.00 0.00 68 1015.2
20260504172027 67 222 0.0 0.0 0.00 0.00 0.00 67 1015.2
20260504171524 68 222 0.0 2.0 0.00 0.00 0.00 65 1015.2
20260504171024 68 222 1.0 2.0 0.00 0.00 0.00 67 1015.2
20260504170530 68 222 1.0 2.0 0.00 0.00 0.00 65 1015.2
20260504151018 75 200 4.0 8.0 0.00 0.00 0.00 46 1015.5
20260504150540 75 207 2.0 6.0 0.00 0.00 0.00 46 1015.4
20260504141018 76 209 2.0 9.0 0.00 0.00 0.00 41 1015.7
20260504140545 76 221 2.0 9.0 0.00 0.00 0.00 42 1015.6
20260504130520 77 221 3.0 8.0 0.00 0.00 0.00 40 1016.1
20260504110520 78 207 3.0 10.0 0.00 0.00 0.00 37 1016.5
20260504100542 77 198 1.0 12.0 0.00 0.00 0.00 34 1017.0
20260504081529 67 46 3.0 5.0 0.00 0.00 0.00 60 1017.4
20260504081030 67 53 3.0 5.0 0.00 0.00 0.00 61 1017.4
20260504080514 66 53 3.0 5.0 0.00 0.00 0.00 62 1017.4
20260504050526 48 251 2.0 4.0 0.00 0.00 0.00 85 1017.6
20260504050020 48 250 2.0 4.0 0.00 0.00 0.00 86 1017.6
20260504045522 48 249 1.0 4.0 0.00 0.00 0.00 86 1017.6
20260504045025 48 248 2.0 4.0 0.00 0.00 0.00 87 1017.5
20260504044550 47 248 1.0 3.0 0.00 0.00 0.00 87 1017.5
20260504044028 47 248 0.0 3.0 0.00 0.00 0.00 87 1017.6
20260504043529 47 248 1.0 4.0 0.00 0.00 0.00 87 1017.5
20260504043018 47 247 1.0 2.0 0.00 0.00 0.00 86 1017.5
20260504042521 47 247 0.0 3.0 0.00 0.00 0.00 87 1017.4
20260504042040 47 247 1.0 3.0 0.00 0.00 0.00 86 1017.4
20260504041543 47 247 1.0 3.0 0.00 0.00 0.00 86 1017.4
20260504041042 47 247 2.0 3.0 0.00 0.00 0.00 86 1017.4
20260504040522 47 247 1.0 3.0 0.00 0.00 0.00 86 1017.4
20260504040013 47 247 2.0 3.0 0.00 0.00 0.00 86 1017.4
20260504035537 47 247 0.0 2.0 0.00 0.00 0.00 86 1017.4
20260504035016 47 247 1.0 2.0 0.00 0.00 0.00 85 1017.4
20260504034520 47 247 0.0 1.0 0.00 0.00 0.00 86 1017.4
20260504034020 47 247 0.0 1.0 0.00 0.00 0.00 85 1017.4
20260504033525 47 247 0.0 2.0 0.00 0.00 0.00 85 1017.4
20260504033015 48 247 0.0 3.0 0.00 0.00 0.00 85 1017.4
20260504032538 48 247 1.0 4.0 0.00 0.00 0.00 85 1017.4
20260504032018 48 246 2.0 4.0 0.00 0.00 0.00 85 1017.3
20260504031520 48 246 1.0 3.0 0.00 0.00 0.00 85 1017.3
20260504031018 48 246 1.0 3.0 0.00 0.00 0.00 85 1017.3
20260504030520 48 246 1.0 3.0 0.00 0.00 0.00 85 1017.3
20260504030031 48 246 0.0 3.0 0.00 0.00 0.00 85 1017.3
20260504025514 48 246 0.0 2.0 0.00 0.00 0.00 85 1017.2
20260504025036 48 246 1.0 2.0 0.00 0.00 0.00 84 1017.4
20260504024521 48 246 1.0 2.0 0.00 0.00 0.00 84 1017.4
20260504024021 48 246 0.0 3.0 0.00 0.00 0.00 84 1017.5
20260504023524 48 246 1.0 5.0 0.00 0.00 0.00 84 1017.6
20260504023016 48 246 1.0 5.0 0.00 0.00 0.00 84 1017.6
20260504022540 48 245 1.0 5.0 0.00 0.00 0.00 84 1017.6
20260504022021 48 245 2.0 5.0 0.00 0.00 0.00 84 1017.6
20260504021523 48 244 1.0 4.0 0.00 0.00 0.00 84 1017.6
20260504021023 48 244 1.0 2.0 0.00 0.00 0.00 84 1017.5
20260504020549 49 244 0.0 3.0 0.00 0.00 0.00 84 1017.5
20260504020020 49 244 1.0 3.0 0.00 0.00 0.00 84 1017.5
20260504015523 49 244 1.0 3.0 0.00 0.00 0.00 84 1017.5
20260504015044 49 244 1.0 2.0 0.00 0.00 0.00 84 1017.5
20260504014528 49 244 1.0 2.0 0.00 0.00 0.00 83 1017.5
20260504014030 49 244 0.0 2.0 0.00 0.00 0.00 83 1017.5
20260504013532 49 244 0.0 3.0 0.00 0.00 0.00 83 1017.6
20260504013025 49 244 1.0 3.0 0.00 0.00 0.00 83 1017.5
20260504012527 49 244 1.0 3.0 0.00 0.00 0.00 83 1017.5
20260504012049 49 244 1.0 4.0 0.00 0.00 0.00 83 1017.5
20260504011517 49 244 1.0 5.0 0.00 0.00 0.00 83 1017.5
20260504011037 49 243 2.0 5.0 0.00 0.00 0.00 83 1017.5
20260504010518 49 242 2.0 4.0 0.00 0.00 0.00 83 1017.4
20260504010027 50 241 0.0 1.0 0.00 0.00 0.00 82 1017.5
20260504005530 50 241 0.0 1.0 0.00 0.00 0.00 82 1017.5
20260504005053 50 241 0.0 1.0 0.00 0.00 0.00 82 1017.5
20260504004516 50 241 0.0 1.0 0.00 0.00 0.00 82 1017.5
20260504004018 50 241 0.0 2.0 0.00 0.00 0.00 82 1017.5
20260504003520 50 241 1.0 3.0 0.00 0.00 0.00 82 1017.5
20260504003029 50 241 1.0 4.0 0.00 0.00 0.00 82 1017.5
20260504002553 50 241 1.0 5.0 0.00 0.00 0.00 82 1017.6
20260504002032 50 241 2.0 5.0 0.00 0.00 0.00 82 1017.5
20260504001515 50 240 1.0 3.0 0.00 0.00 0.00 82 1017.5
20260504001015 50 240 0.0 1.0 0.00 0.00 0.00 82 1017.5
20260504000519 50 240 0.0 2.0 0.00 0.00 0.00 82 1017.5
20260504000054 50 240 0.0 2.0 0.00 0.00 0.00 82 1017.5
20260503235516 50 240 0.0 3.0 0.00 0.00 0.00 81 1017.5
20260503235017 50 240 1.0 4.0 0.00 0.00 0.00 81 1017.5
20260503234521 50 240 0.0 4.0 0.00 0.00 0.00 81 1017.5
20260503234025 50 239 1.0 4.0 0.00 0.00 0.00 81 1017.6
20260503233530 50 238 2.0 4.0 0.00 0.00 0.00 81 1017.6
20260503233018 50 238 1.0 3.0 0.00 0.00 0.00 81 1017.6
20260503232542 50 238 1.0 2.0 0.00 0.00 0.00 81 1017.6
20260503232020 50 238 0.0 2.0 0.00 0.00 0.00 81 1017.6
20260503231544 50 238 0.0 2.0 0.00 0.00 0.00 81 1017.6
20260503231022 50 238 0.0 4.0 0.00 0.00 0.00 81 1017.5
20260503230523 51 238 1.0 4.0 0.00 0.00 0.00 81 1017.5
20260503230015 51 237 1.0 4.0 0.00 0.00 0.00 81 1017.5
20260503225518 51 237 3.0 4.0 0.00 0.00 0.00 81 1017.5
20260503225035 51 236 1.0 2.0 0.00 0.00 0.00 81 1017.5
20260503224515 51 236 0.0 3.0 0.00 0.00 0.00 81 1017.5
20260503224014 51 236 1.0 4.0 0.00 0.00 0.00 81 1017.5
20260503223540 51 236 1.0 4.0 0.00 0.00 0.00 81 1017.5
20260503223031 51 236 0.0 2.0 0.00 0.00 0.00 81 1017.5
20260503222514 51 236 0.0 1.0 0.00 0.00 0.00 81 1017.5
20260503222014 51 236 0.0 2.0 0.00 0.00 0.00 81 1017.5
20260503221538 51 236 0.0 4.0 0.00 0.00 0.00 81 1017.5
20260503221016 50 236 2.0 4.0 0.00 0.00 0.00 81 1017.5
20260503220524 50 236 1.0 2.0 0.00 0.00 0.00 82 1017.4
20260503220015 50 236 0.0 0.0 0.00 0.00 0.00 82 1017.4
20260503215518 51 236 0.0 2.0 0.00 0.00 0.00 82 1017.4
20260503215017 51 236 0.0 2.0 0.00 0.00 0.00 81 1017.4
20260503214520 51 236 0.0 0.0 0.00 0.00 0.00 82 1017.4
20260503214038 51 236 0.0 0.0 0.00 0.00 0.00 81 1017.3
20260503213543 51 236 0.0 0.0 0.00 0.00 0.00 81 1017.3
20260503213032 51 236 0.0 0.0 0.00 0.00 0.00 81 1017.3
20260503212515 51 236 0.0 0.0 0.00 0.00 0.00 81 1017.2
20260503212015 51 236 0.0 0.0 0.00 0.00 0.00 81 1017.2
20260503211520 51 236 0.0 0.0 0.00 0.00 0.00 81 1017.2
20260503211022 51 236 0.0 0.0 0.00 0.00 0.00 80 1017.1
20260503210526 51 236 0.0 0.0 0.00 0.00 0.00 80 1017.1
20260503210020 51 236 0.0 0.0 0.00 0.00 0.00 80 1017.0
20260503205524 52 236 0.0 0.0 0.00 0.00 0.00 80 1017.0
20260503205020 52 236 0.0 0.0 0.00 0.00 0.00 80 1017.0
20260503204522 52 236 0.0 0.0 0.00 0.00 0.00 80 1016.9
20260503204024 52 236 0.0 0.0 0.00 0.00 0.00 79 1016.9
20260503203527 52 236 0.0 0.0 0.00 0.00 0.00 79 1016.9
20260503203018 53 236 0.0 0.0 0.00 0.00 0.00 79 1016.9
20260503202521 53 236 0.0 0.0 0.00 0.00 0.00 78 1016.9
20260503202021 53 236 0.0 0.0 0.00 0.00 0.00 77 1016.9
20260503201545 53 236 0.0 0.0 0.00 0.00 0.00 77 1016.9
20260503201025 53 236 0.0 0.0 0.00 0.00 0.00 77 1016.8
20260503200531 54 236 0.0 0.0 0.00 0.00 0.00 76 1016.9
20260503200021 54 236 0.0 0.0 0.00 0.00 0.00 76 1016.8
20260503195523 54 236 0.0 0.0 0.00 0.00 0.00 76 1016.9
20260503195044 54 236 0.0 0.0 0.00 0.00 0.00 75 1016.9
20260503194525 54 236 0.0 0.0 0.00 0.00 0.00 74 1017.0
20260503194045 55 236 0.0 0.0 0.00 0.00 0.00 74 1017.0
20260503193526 55 236 0.0 0.0 0.00 0.00 0.00 73 1017.0
20260503193016 55 236 0.0 0.0 0.00 0.00 0.00 73 1016.9
20260503192518 55 236 0.0 0.0 0.00 0.00 0.00 72 1016.9
20260503192019 56 236 0.0 0.0 0.00 0.00 0.00 72 1016.8
20260503191523 56 236 0.0 0.0 0.00 0.00 0.00 72 1016.8
20260503191026 56 236 0.0 0.0 0.00 0.00 0.00 72 1016.7
20260503190549 57 236 0.0 0.0 0.00 0.00 0.00 71 1016.7
20260503190022 57 236 0.0 0.0 0.00 0.00 0.00 71 1016.6
20260503185526 57 236 0.0 1.0 0.00 0.00 0.00 70 1016.6
20260503185025 58 236 0.0 1.0 0.00 0.00 0.00 70 1016.6
20260503184527 58 236 0.0 0.0 0.00 0.00 0.00 70 1016.5
20260503184027 58 236 0.0 1.0 0.00 0.00 0.00 69 1016.4
20260503183549 59 236 1.0 1.0 0.00 0.00 0.00 69 1016.5
20260503183019 59 236 0.0 1.0 0.00 0.00 0.00 69 1016.5
20260503182523 59 236 0.0 1.0 0.00 0.00 0.00 68 1016.4
20260503182024 60 236 0.0 1.0 0.00 0.00 0.00 68 1016.4
20260503181528 60 236 0.0 2.0 0.00 0.00 0.00 68 1016.5
20260503181049 60 236 0.0 2.0 0.00 0.00 0.00 68 1016.5
20260503180530 61 236 1.0 2.0 0.00 0.00 0.00 68 1016.5
20260503180021 61 236 0.0 2.0 0.00 0.00 0.00 67 1016.4
20260503175525 61 236 1.0 2.0 0.00 0.00 0.00 67 1016.4
20260503175025 61 236 1.0 2.0 0.00 0.00 0.00 66 1016.5
20260503174512 62 236 0.0 1.0 0.00 0.00 0.00 67 1016.4